{"data":{"norad_id":47903,"epoch":"2026-05-25T05:27:33.170400Z","epoch_age_seconds":48674,"freshness":"FRESH","line1":"1 47903U 21021AV  26145.22746725  .00156626  00000+0  78009-3 0  9994","line2":"2 47903  53.1542 233.4444 0006015 328.2716  31.7943 15.80926945288857","mean_motion":15.80926945,"eccentricity":0.0006015,"inclination_deg":53.1542,"raan_deg":233.4444,"arg_perigee_deg":328.2716,"mean_anomaly_deg":31.7943,"bstar":0.00078009,"rev_number":28885,"period_min":91.085802829428,"perigee_km":323.78445296903,"apogee_km":331.85171693623,"semimajor_km":6705.9550849526,"source":"CELESTRAK","updated_at":"2026-05-25T13:38:16.636316Z"}}